Regional Weather Roundup
Issued by NWS Burlington, VT

Home | Current Version | Previous Version | Text Only | Print | Product List | Glossary On
Versions: 1 2 3 4 5 6 7 8 9 10 11 12 13 14 15 16 17 18 19 20 21 22 23 24 25 26 27 28 29 30 31 32 33 34 35 36 37 38 39 40 41 42 43 44 45 46 47 48 49 50
000
ASUS41 KBTV 241030
RWRBTV
VERMONT REGIONAL WEATHER ROUNDUP
NATIONAL WEATHER SERVICE BURLINGTON VT
600 AM EDT FRI MAR 24 2017

NOTE: "FAIR" INDICATES FEW OR NO CLOUDS BELOW 12,000 FEET WITH NO
SIGNIFICANT WEATHER AND/OR OBSTRUCTIONS TO VISIBILITY.

* THESE REPORTS ARE NOT UNDER NWS QUALITY CONTROL AND/OR DO NOT
  REPORT WEATHER SUCH AS PRECIPITATION AND FOG.

VTZ001>019-241100-
_____VERMONT_____


CITY           SKY/WX    TMP DP  RH WIND       PRES   REMARKS
BURLINGTON     CLOUDY    31   9  39 S15G26    30.32F WCI  20
MONTPELIER     CLOUDY    24   6  46 CALM      30.38S
MORRISVILLE    CLOUDY    19   9  65 S5        30.36F WCI  12
ST. JOHNSBURY*   N/A     19   9  65 MISG      30.37F
LYNDONVILLE*   FAIR      19   6  55 S5        30.35F WCI  12
MIDDLEBURY*    CLOUDY    30   8  39 S5        30.35F WCI  25
RUTLAND*       CLOUDY    25  10  53 SE9       30.38R WCI  15
SPRINGFIELD    CLOUDY    22  12  65 CALM      30.43R
HIGHGATE*      CLOUDY    29   9  41 S10G17    30.29F WCI  20
NEWPORT*       MOCLDY    22   5  47 S6        30.31F WCI  15
BENNINGTON     CLOUDY    31   7  36 VRB5      30.37R WCI  26
SUTTON*          N/A     19 N/A N/A MISG        N/A
ISLAND POND*     N/A     12 N/A N/A CALM        N/A
GALLUP MILLS*    N/A     14 N/A N/A MISG        N/A
UNION VILLAGE*   N/A     23 N/A N/A MISG        N/A
MT. MANSFIELD*   N/A     18 N/A N/A S25G39      N/A  WCI  -1

_____LAKE CHAMPLAIN_____


CITY           SKY/WX    TMP DP  RH WIND       PRES   REMARKS
BURTON ISLAND*   N/A     32  18  55 S18         N/A  WCI  20
COLCHESTER RF*   N/A     32  19  59 S30         N/A  WCI  18
DIAMOND ISL*     N/A     32  14  47 SE18        N/A  WCI  20

$$

NYZ007-026>031-035-052-083-087-241100-
_____NORTHERN NEW YORK_____


CITY           SKY/WX    TMP DP  RH WIND       PRES   REMARKS
PLATTSBURGH    CLOUDY    28  13  53 S5        30.31F WCI  23
SARANAC LAKE   CLOUDY    22  10  60 CALM      30.21F
MASSENA        CLOUDY    29  14  53 CALM      30.26F
STARK FALLS*     N/A     30 N/A N/A S10         N/A  WCI  21
WATERTOWN      CLOUDY    38  12  34 S9        30.20F WCI  31
FT DRUM        CLOUDY    31  11  44 SE15      30.19F WCI  20
ALBANY         CLOUDY    31   9  39 S8        30.40S WCI  23
GLENS FALLS    CLOUDY    29  12  49 CALM      30.40R

$$
NHZ002-005-011-241100-
_____NEW HAMPSHIRE_____


CITY           SKY/WX    TMP DP  RH WIND       PRES   REMARKS
LEBANON        CLOUDY    24  12  60 CALM      30.40S
KEENE          CLOUDY    25  17  72 CALM      30.44R
MT WASHINGTON  CLOUDY     9 -13  37 W39G46      N/A  WCI -17
PLYMOUTH       CLOUDY    23  12  62 CALM      30.43F
WHITEFIELD     CLOUDY    15   5  64 CALM      30.36F

$$

_____REGIONAL QUEBEC LOCATIONS_____


CITY           SKY/WX    TMP DP  RH WIND       PRES   REMARKS
MONTREAL       CLOUDY    28  12  50 SE9       30.27F WCI  20
QUEBEC CITY    MOCLDY    19   7  58 NE6       30.30F WCI  11
SHERBROOKE     MOCLDY    19   5  53 E7        30.30F WCI  10

_____REGIONAL ONTARIO LOCATIONS_____


CITY           SKY/WX    TMP DP  RH WIND       PRES   REMARKS
OTTAWA         SNOW      25  23  93 CALM      30.24F VSB 1/2

______KEY______
VSB  - VISIBILITY IN MILES
WCI  - WIND CHILL INDEX
HX   - HEAT INDEX
$$
NNNN




USA.gov is the U.S. government's official web portal to all federal, state and local government web resources and services.